Rutherfordton, NC

4:35 AM EDT on October 19, 2017 (GMT -0400)
Rutherford County-Marchman

Weather History for KFQD - February, 2013

Change the Weather History Date:

Sunday, February 17, 2013

  Actual Average (KAVL) Record (KAVL)
Temperature  
Mean Temperature 32 °F -  
Max Temperature 42 °F 49 °F 76 °F (1927)
Min Temperature 23 °F 30 °F -3 °F (1958)
Degree Days  
Heating Degree Days 33    
Moisture  
Dew Point 8 °F    
Average Humidity 38    
Maximum Humidity 61    
Minimum Humidity 26    
Precipitation  
Precipitation 0.00 in - - ()
Sea Level Pressure  
Sea Level Pressure 30.12 in    
Wind  
Wind Speed 7 mph (WNW)    
Max Wind Speed 18 mph    
Max Gust Speed 25 mph    
Visibility 10 miles    
Events      
Averages and records for this station are not official NWS values.
T = Trace of Precipitation, MM = Missing Value Source: NWS Daily Summary

Daily Weather History Graph

Daily Weather History Graph

Search for Another Location

Airport or City:

Trip Planner

Search our weather history database for the weather conditions in past years. The results will help you decide how hot, cold, wet, or windy it might be!

Date:

Astronomy

Feb. 17, 2013 Rise Set
Actual Time 7:11 AM EST 6:12 PM EST
Civil Twilight 6:45 AM EST 6:38 PM EST
Nautical Twilight 6:16 AM EST 7:07 PM EST
Astronomical Twilight 5:46 AM EST 7:37 PM EST
Moon 11:20 AM EST (2/17) 12:50 AM EST (2/17)
Length of Visible Light 11h 52m
Length of Day
11h 00m
Waxing Crescent, 49% of the Moon is Illuminated
Feb 17
Waxing Crescent
Feb 17
First Quarter
Feb 25
Full
Mar 4
Last Quarter
Mar 11
New

Hourly Weather History & Observations

Time (EST) Temp. Windchill Dew Point Humidity Pressure Visibility Wind Dir Wind Speed Gust Speed Precip Events Conditions
12:15 AM 28.4 °F - 16.0 °F 60% 30.01 in 10.0 mi Calm Calm - N/A   Overcast
12:35 AM 27.7 °F 23.8 °F 15.6 °F 61% 30.01 in 10.0 mi NNW 3.5 mph - N/A   Overcast
12:55 AM 27.1 °F 20.7 °F 15.4 °F 61% 30.01 in 10.0 mi NW 5.8 mph - N/A   Scattered Clouds
1:15 AM 27.3 °F 23.4 °F 14.0 °F 57% 30.02 in 10.0 mi NW 3.5 mph - N/A   Scattered Clouds
1:35 AM 26.2 °F 20.7 °F 14.0 °F 60% 30.02 in 10.0 mi West 4.6 mph - N/A   Scattered Clouds
1:55 AM 27.0 °F 19.5 °F 8.4 °F 46% 30.02 in 10.0 mi WNW 6.9 mph - N/A   Clear
2:15 AM 26.6 °F 18.2 °F 7.9 °F 45% 30.02 in 10.0 mi WNW 8.1 mph - N/A   Clear
2:35 AM 26.6 °F 15.2 °F 7.2 °F 44% 30.02 in 10.0 mi WNW 13.8 mph 19.6 mph N/A   Clear
2:55 AM 26.2 °F 14.2 °F 6.8 °F 44% 30.02 in 10.0 mi WNW 15.0 mph 24.2 mph N/A   Clear
3:15 AM 25.9 °F 15.3 °F 7.2 °F 45% 30.02 in 10.0 mi WNW 11.5 mph 20.7 mph N/A   Clear
3:35 AM 25.7 °F 15.7 °F 6.8 °F 45% 30.03 in 10.0 mi WNW 10.4 mph - N/A   Clear
3:55 AM 25.3 °F 21.1 °F 6.6 °F 45% 30.03 in 10.0 mi WNW 3.5 mph - N/A   Clear
4:15 AM 25.2 °F 20.9 °F 5.9 °F 44% 30.04 in 10.0 mi NNW 3.5 mph - N/A   Clear
4:35 AM 24.8 °F 17.9 °F 7.2 °F 47% 30.05 in 10.0 mi WNW 5.8 mph - N/A   Clear
4:55 AM 25.0 °F 18.1 °F 7.0 °F 46% 30.05 in 10.0 mi West 5.8 mph - N/A   Clear
5:15 AM 25.3 °F 15.3 °F 5.9 °F 44% 30.05 in 10.0 mi WNW 10.4 mph 18.4 mph N/A   Clear
5:35 AM 25.5 °F 14.9 °F 5.0 °F 42% 30.06 in 10.0 mi NW 11.5 mph 16.1 mph N/A   Clear
5:55 AM 24.4 °F 20.1 °F 6.4 °F 46% 30.07 in 10.0 mi West 3.5 mph - N/A   Clear
6:15 AM 24.4 °F 17.5 °F 7.3 °F 48% 30.08 in 10.0 mi West 5.8 mph - N/A   Clear
6:35 AM 24.3 °F - 7.0 °F 48% 30.08 in 10.0 mi Calm Calm - N/A   Clear
6:55 AM 23.9 °F - 7.2 °F 49% 30.08 in 10.0 mi Calm Calm - N/A   Clear
7:15 AM 23.7 °F - 6.8 °F 49% 30.09 in 10.0 mi Calm Calm - N/A   Clear
7:35 AM 23.7 °F - 7.0 °F 49% 30.09 in 10.0 mi Calm Calm - N/A   Clear
7:55 AM 25.7 °F 21.5 °F 6.6 °F 44% 30.09 in 10.0 mi West 3.5 mph - N/A   Clear
8:15 AM 27.5 °F 23.6 °F 7.2 °F 42% 30.10 in 10.0 mi NW 3.5 mph - N/A   Clear
8:35 AM 28.8 °F 25.0 °F 5.7 °F 38% 30.11 in 10.0 mi West 3.5 mph - N/A   Clear
8:55 AM 30.0 °F 24.1 °F 7.9 °F 39% 30.12 in 10.0 mi West 5.8 mph - N/A   Clear
9:15 AM 30.9 °F 24.3 °F 8.2 °F 39% 30.12 in 10.0 mi WNW 6.9 mph - N/A   Clear
9:35 AM 31.5 °F 22.9 °F 9.5 °F 40% 30.13 in 10.0 mi WNW 10.4 mph 16.1 mph N/A   Clear
9:55 AM 31.8 °F 23.9 °F 9.5 °F 39% 30.13 in 10.0 mi WNW 9.2 mph 21.9 mph N/A   Clear
10:15 AM 32.2 °F 25.8 °F 10.6 °F 41% 30.13 in 10.0 mi WNW 6.9 mph 23.0 mph N/A   Clear
10:35 AM 33.1 °F 23.0 °F 10.9 °F 40% 30.13 in 10.0 mi WNW 15.0 mph 19.6 mph N/A   Clear
10:55 AM 33.4 °F 24.3 °F 10.0 °F 38% 30.14 in 10.0 mi WNW 12.7 mph 23.0 mph N/A   Clear
11:15 AM 34.5 °F 25.3 °F 9.7 °F 36% 30.14 in 10.0 mi WNW 13.8 mph 23.0 mph N/A   Clear
11:35 AM 35.4 °F 27.3 °F 9.9 °F 35% 30.14 in 10.0 mi West 11.5 mph 23.0 mph N/A   Clear
12:15 PM 37.6 °F 27.7 °F 10.2 °F 32% 30.13 in 10.0 mi WNW 18.4 mph 25.3 mph N/A   Clear
12:35 PM 37.9 °F 29.2 °F 8.1 °F 29% 30.13 in 10.0 mi West 15.0 mph 24.2 mph N/A   Clear
12:55 PM 38.8 °F 30.4 °F 9.9 °F 30% 30.12 in 10.0 mi West 15.0 mph 20.7 mph N/A   Clear
1:15 PM 39.6 °F 32.5 °F 9.1 °F 29% 30.12 in 10.0 mi West 11.5 mph 21.9 mph N/A   Clear
1:35 PM 39.2 °F 30.8 °F 9.3 °F 29% 30.11 in 10.0 mi West 15.0 mph 24.2 mph N/A   Clear
1:55 PM 39.2 °F 31.2 °F 8.1 °F 28% 30.11 in 10.0 mi WNW 13.8 mph 24.2 mph N/A   Clear
2:15 PM 40.3 °F 32.2 °F 8.2 °F 27% 30.11 in 10.0 mi NW 15.0 mph 24.2 mph N/A   Clear
2:35 PM 39.9 °F 31.4 °F 8.6 °F 28% 30.10 in 10.0 mi West 16.1 mph 23.0 mph N/A   Clear
2:55 PM 41.2 °F 33.4 °F 8.8 °F 26% 30.11 in 10.0 mi WNW 15.0 mph 19.6 mph N/A   Clear
3:15 PM 41.2 °F 33.0 °F 8.8 °F 26% 30.11 in 10.0 mi WNW 16.1 mph 20.7 mph N/A   Clear
3:35 PM 40.5 °F 32.8 °F 7.7 °F 26% 30.11 in 10.0 mi West 13.8 mph 20.7 mph N/A   Clear
3:55 PM 41.2 °F 34.5 °F 8.2 °F 26% 30.12 in 10.0 mi WNW 11.5 mph 19.6 mph N/A   Clear
4:15 PM 41.2 °F 35.0 °F 8.1 °F 26% 30.12 in 10.0 mi WNW 10.4 mph 19.6 mph N/A   Clear
4:35 PM 40.6 °F 33.4 °F 8.2 °F 26% 30.13 in 10.0 mi WNW 12.7 mph 16.1 mph N/A   Clear
4:55 PM 40.3 °F 33.4 °F 8.4 °F 27% 30.14 in 10.0 mi West 11.5 mph 18.4 mph N/A   Clear
5:15 PM 39.7 °F 33.2 °F 7.9 °F 27% 30.14 in 10.0 mi West 10.4 mph - N/A   Clear
5:35 PM 39.2 °F 33.6 °F 7.9 °F 27% 30.15 in 10.0 mi West 8.1 mph - N/A   Clear
5:55 PM 38.3 °F 32.5 °F 7.5 °F 28% 30.16 in 10.0 mi West 8.1 mph - N/A   Clear
6:15 PM 36.7 °F 29.4 °F 7.5 °F 30% 30.16 in 10.0 mi West 10.4 mph - N/A   Clear
6:35 PM 36.3 °F 28.9 °F 7.3 °F 30% 30.17 in 10.0 mi WNW 10.4 mph - N/A   Clear
6:55 PM 35.2 °F 29.5 °F 7.3 °F 31% 30.18 in 10.0 mi West 6.9 mph - N/A   Clear
7:15 PM 35.6 °F 30.7 °F 6.4 °F 30% 30.19 in 10.0 mi WSW 5.8 mph - N/A   Clear
7:35 PM 35.1 °F 31.0 °F 7.2 °F 31% 30.19 in 10.0 mi West 4.6 mph - N/A   Clear
7:55 PM 34.5 °F 27.3 °F 7.5 °F 32% 30.19 in 10.0 mi West 9.2 mph - N/A   Clear
8:15 PM 34.2 °F 26.8 °F 8.2 °F 34% 30.19 in 10.0 mi West 9.2 mph - N/A   Clear
8:35 PM 34.0 °F 31.0 °F 8.2 °F 34% 30.21 in 10.0 mi WSW 3.5 mph - N/A   Clear
8:55 PM 32.2 °F 26.7 °F 8.8 °F 38% 30.21 in 10.0 mi South 5.8 mph - N/A   Clear
9:15 PM 33.3 °F 27.1 °F 8.2 °F 35% 30.22 in 10.0 mi SSW 6.9 mph - N/A   Clear
9:35 PM 34.2 °F 28.2 °F 8.2 °F 34% 30.22 in 10.0 mi WSW 6.9 mph - N/A   Clear
9:55 PM 33.8 °F 27.7 °F 9.1 °F 36% 30.23 in 10.0 mi West 6.9 mph - N/A   Clear
10:15 PM 33.1 °F 27.7 °F 9.0 °F 37% 30.23 in 10.0 mi West 5.8 mph - N/A   Clear
10:35 PM 33.1 °F - 9.0 °F 37% 30.24 in 10.0 mi Calm Calm - N/A   Clear
10:55 PM 33.3 °F - 8.2 °F 35% 30.24 in 10.0 mi Calm Calm - N/A   Clear
11:15 PM 33.3 °F - 7.7 °F 34% 30.23 in 10.0 mi Calm Calm - N/A   Clear
11:35 PM 32.5 °F - 7.9 °F 36% 30.24 in 10.0 mi Calm Calm - N/A   Clear
11:55 PM 32.9 °F - 8.2 °F 36% 30.24 in 10.0 mi Calm Calm - N/A   Clear